Weather in Sarni

Ukraine / Rovno District     51°20′06″N   26°37′02″E
temp.,
°C
wind,
m/s
gust,
m/s
humid.,
%
clouds,
%
prec.,
mm/h
press.,
hPa
HPBL,
m
1 july, fri
fri100:00+21ese377728 0.0 1017124
03:00+19se36829 0.0 1017106
06:00+18ese3582100 0.0 1018106
09:00+24ese356375 0.0 1018428
12:00+29ese344232 0.0 10181794
15:00+30ese33355 0.0 10172292
18:00+30se3337100 0.0 10162418
21:00+23e4760100 0.0 1017136
2 july, sat
sat200:00+20ese410695 0.0 1018201
03:00+17se310685 0.0 1019178
06:00+17se3107314 0.0 1020180
09:00+23se575523 0.0 1020452
12:00+27se55415 0.0 10211303
15:00+29sse433872 0.0 10201766
18:00+29sse433944 0.0 10191765
21:00+23se346438 0.0 101962
3 july, sun
sun300:00+20s377058 0.0 1021142
03:00+17s238897 0.4 102166
06:00+17e2395100 2.3 1021121
09:00+19sse357941 4.1 1020272
12:00+24s236749 1.3 1020916
15:00+24sw026987 3.1 1019934
18:00+23wnw117562 0.8 1019389
21:00+21nw22860 1.6 101822
4 july, mon
mon400:00+20n2289100 0.0 101923
03:00+19ne229178 0.0 101840
06:00+18e119310 0.0 101814
09:00+22ene117715 0.0 1018464
12:00+26wnw115868 0.1 10181390
15:00+27wnw225142 0.1 10171174
18:00+28w22410 0.0 10161866
21:00+22w34700 0.0 101756
5 july, tue
tue500:00+20nw22770 0.0 101815
03:00+18nne11864 0.0 101811
06:00+18wnw22875 0.0 101818
09:00+24nw23657 0.0 1018419
12:00+28nw334888 0.0 10181463
15:00+29nw3342100 0.0 10172444
18:00+20nw61082100 1.6 1018400
21:00+18nw2390100 3.8 101872